RH
7 7 7 8 9 9 10 11 12 14 15 17 19 20 24 24 24 28 32 36 38 32 36 50 48 40 41 45 50 59 68 75 77 78 78 78 81 85 90 94 95 97 98 99 100 100 101 100 97 93 88 84 80 76 73 69 65 61 57 54 50 47 44 41 39 36 34 33 31 29 29 27 26 26 25 24 24 23 22 21 21 21 21 22 23 26
7 8 8 9 9 10 11 12 13 14 16 18 20 21 24 25 22 24 29 32 33 29 32 40 38 33 36 41 46 53 63 73 78 82 87 90 94 96 97 97 98 99 101 102 103 102 105 104 100 96 91 87 82 77 73 67 63 58 54 51 47 44 43 41 39 36 33 32 31 29 28 26 24 23 23 22 21 21 20 19 19 18 17 18 18 19
8 8 8 9 10 11 12 14 14 16 19 21 22 23 24 25 23 20 24 26 27 29 33 37 37 35 38 43 49 55 64 72 77 84 92 97 98 97 97 99 100 101 102 102 102 102 103 102 99 95 89 83 76 71 67 63 60 59 58 56 55 53 51 48 44 41 38 35 34 32 30 27 25 24 23 21 20 19 19 18 17 17 16 15 15 15
8 8 9 10 10 12 14 15 16 17 21 24 25 25 25 27 27 23 22 23 27 34 40 41 40 39 43 49 56 64 71 76 79 84 90 95 97 98 100 102 102 101 102 102 102 102 102 101 97 92 86 81 78 75 72 70 70 69 69 67 65 61 56 51 47 44 40 37 34 32 30 28 25 23 22 20 19 18 17 17 16 15 15 15 14 14
8 9 10 11 11 13 15 15 17 17 19 23 26 26 26 27 29 28 26 24 26 33 40 45 46 46 52 61 67 72 75 76 82 87 91 96 99 101 102 102 102 102 102 101 101 101 100 98 96 93 91 89 87 84 80 77 75 72 69 65 61 57 52 48 46 42 39 37 34 32 29 26 23 21 19 17 16 15 15 14 14 13 13 13 13 13
9 10 10 12 13 14 16 16 17 17 17 21 24 24 25 27 27 28 30 29 27 30 38 50 58 56 57 68 74 75 75 78 87 95 100 102 102 102 103 104 104 103 102 101 101 101 100 98 98 96 94 91 86 81 77 74 71 67 63 60 56 54 51 48 45 43 40 37 33 29 25 21 17 15 12 11 10 10 9 9 9 9 10 10 10 11
11 11 12 13 14 16 17 18 19 19 19 21 22 23 25 27 28 29 31 31 31 33 38 52 66 67 65 71 75 76 80 86 93 100 103 102 101 103 104 104 104 103 102 102 100 102 103 102 99 95 90 85 79 74 71 69 67 64 60 57 54 52 50 48 45 40 35 30 25 20 16 12 10 8 6 6 5 5 4 4 4 4 5 5 6 6
12 13 14 15 16 18 19 20 21 22 23 23 24 25 27 28 29 31 31 30 34 33 35 50 67 72 69 71 79 86 92 95 97 101 101 100 102 104 105 104 103 102 102 102 103 104 104 100 93 86 80 75 71 68 66 65 62 59 55 53 51 49 48 44 39 33 27 21 16 12 10 8 6 5 6 7 7 7 7 7 6 5 5 4 3 3
14 15 16 17 19 20 21 24 24 26 27 26 27 28 29 30 30 32 31 31 34 32 36 50 65 74 71 70 84 94 93 94 97 99 99 99 102 104 104 102 101 102 103 104 104 99 93 88 83 79 76 71 67 64 62 60 58 55 53 51 48 45 41 36 31 25 19 15 13 11 9 7 8 11 14 13 12 12 12 11 10 10 9 8 7 6
17 18 19 20 21 21 24 27 29 31 33 32 32 31 31 32 32 33 31 33 34 32 41 53 62 74 68 61 78 86 84 90 95 96 97 98 102 104 103 102 103 104 104 100 94 88 84 85 86 83 76 69 65 63 61 60 58 56 52 47 42 37 31 26 21 17 16 15 12 10 11 13 16 18 18 16 14 13 12 11 10 9 9 9 9 9
20 21 22 22 23 23 26 31 34 37 38 37 36 35 34 34 34 33 32 37 36 34 46 56 62 71 63 57 73 83 83 91 95 97 101 100 101 103 103 104 104 101 96 91 85 83 85 85 82 75 70 69 69 68 64 59 55 49 42 36 29 24 20 16 15 16 16 13 11 15 19 20 20 19 17 16 16 15 13 11 10 8 8 7 7 8
23 23 24 24 24 25 27 32 36 39 41 40 40 40 38 36 35 33 34 39 38 37 47 58 63 66 65 70 82 87 88 94 100 103 103 100 99 100 102 102 100 94 88 85 82 82 82 78 73 72 74 75 71 64 55 46 39 32 26 22 17 15 14 13 16 16 13 15 22 26 25 23 22 21 22 24 26 27 24 21 18 15 14 14 13 13
25 25 25 26 27 29 31 33 34 38 43 43 43 46 44 43 41 36 39 43 42 40 48 62 70 66 70 80 83 87 95 99 101 100 95 95 97 98 102 102 98 96 95 93 89 85 83 81 80 80 76 67 55 45 36 28 23 18 15 13 12 13 12 14 17 13 16 30 36 29 26 27 28 29 32 35 37 38 38 37 36 34 33 35 36 38
27 28 28 30 33 34 37 40 38 40 46 46 48 51 50 54 53 45 50 56 52 46 50 66 77 75 75 76 75 84 95 97 96 94 92 94 98 101 102 101 101 104 103 97 91 89 90 89 82 71 57 44 34 26 20 17 14 13 13 12 12 14 14 16 15 13 29 46 39 29 33 37 36 38 41 42 41 41 42 44 47 49 52 55 60 64
29 32 31 34 37 38 42 47 47 47 49 48 51 53 53 57 56 51 57 68 68 57 54 66 78 83 81 73 77 92 97 98 98 96 97 99 100 102 100 101 103 102 96 92 93 96 91 78 60 44 33 24 19 16 14 14 14 14 14 13 14 15 15 17 14 19 42 54 40 34 41 44 43 45 46 45 44 44 45 45 47 51 57 62 68 75
30 37 35 36 40 40 43 50 52 51 51 50 51 53 52 53 55 52 53 68 81 69 57 69 79 82 83 78 87 102 100 99 102 99 100 101 99 100 100 103 102 96 96 98 95 85 66 47 33 23 19 16 15 15 14 14 14 15 16 15 16 16 16 17 14 24 49 57 46 42 46 50 51 51 51 51 49 51 52 50 46 46 52 59 67 75
28 37 37 37 41 42 44 53 59 56 55 54 52 51 50 50 57 61 58 71 92 79 59 73 86 82 84 89 95 102 101 100 102 100 100 100 101 101 99 100 101 101 100 90 70 49 33 24 20 17 17 16 16 16 15 15 16 17 18 17 18 17 17 17 16 29 50 57 52 49 48 52 54 55 59 60 58 59 58 53 49 46 46 53 61 70
26 34 38 38 41 44 45 52 59 59 57 56 53 52 50 48 53 65 76 89 101 90 67 72 90 88 90 100 101 100 101 100 99 101 101 98 97 97 98 102 102 94 77 53 34 24 20 19 18 18 19 18 18 17 16 17 17 19 19 19 19 17 17 16 17 33 52 57 57 55 52 54 54 54 58 60 61 63 60 53 51 51 49 50 57 64
28 31 37 40 42 47 48 49 53 55 56 55 55 54 52 52 51 57 81 101 105 102 84 72 78 84 92 104 103 99 100 100 101 101 98 95 95 99 101 94 77 57 37 25 21 20 20 21 21 21 20 19 19 18 17 18 18 20 20 20 20 17 18 16 17 34 56 62 61 59 56 57 55 54 57 58 59 62 63 59 54 55 56 55 57 59
32 32 36 41 44 46 48 50 51 52 55 55 55 55 51 55 53 47 62 90 104 107 99 84 74 75 91 103 102 101 101 99 101 101 100 100 98 89 75 55 37 26 21 22 23 23 24 24 23 22 21 20 20 19 19 20 20 21 21 20 20 17 18 17 17 35 57 63 61 60 60 61 58 56 58 60 59 58 61 63 59 58 61 62 61 60
34 34 35 39 42 44 49 54 56 56 58 56 55 56 53 53 55 48 44 61 86 101 106 101 76 64 87 105 101 100 101 99 103 104 98 87 69 49 35 25 22 22 23 25 25 26 26 24 23 23 21 20 20 21 21 21 22 23 22 21 19 17 18 16 19 38 58 62 60 62 65 67 66 62 59 60 63 61 60 63 64 64 64 65 67 66
36 36 35 37 40 43 45 50 54 55 57 58 57 56 55 54 56 57 47 43 58 80 99 102 77 65 89 103 98 101 105 99 93 81 65 46 31 24 22 22 25 26 26 27 26 25 24 23 23 22 21 21 22 23 22 22 23 23 22 21 18 17 18 16 20 40 59 63 61 63 68 72 72 70 65 60 63 68 68 65 64 66 66 64 66 68
37 36 33 34 39 42 42 44 48 52 55 57 58 55 54 53 53 58 64 58 50 56 73 77 63 67 89 97 101 105 91 68 51 37 28 22 21 24 25 26 28 27 26 25 23 23 23 23 23 22 23 23 23 24 22 22 23 22 20 19 18 17 17 16 26 44 59 63 63 65 69 72 71 69 68 64 62 67 73 72 67 63 61 58 60 65
39 40 37 33 33 35 38 41 45 52 57 57 57 57 54 52 51 50 59 65 52 43 53 60 59 73 90 93 92 79 49 28 22 20 21 24 26 28 28 28 26 23 22 21 21 23 23 23 24 24 25 24 23 23 22 22 22 20 19 18 17 17 16 22 36 51 59 63 67 70 71 72 69 66 65 66 64 62 68 77 73 62 55 53 57 67
41 46 48 44 39 37 39 43 43 48 56 58 58 59 55 52 50 43 46 52 44 34 49 74 85 83 77 66 52 35 21 19 22 24 28 30 29 28 25 22 20 19 20 20 22 23 24 25 25 25 25 23 22 21 21 21 20 19 17 16 17 19 22 34 49 61 68 70 72 72 70 68 67 67 65 64 66 65 66 75 76 62 52 51 55 65
40 47 57 60 57 58 60 61 57 54 55 57 57 57 57 53 48 43 42 42 41 44 65 97 101 69 41 31 23 17 19 22 24 28 30 29 26 22 19 18 18 19 19 20 22 22 23 25 25 24 22 20 19 20 21 20 18 17 18 22 28 32 38 52 66 74 78 76 74 70 68 69 68 70 69 64 66 67 66 74 77 63 52 50 51 58
37 43 57 66 64 65 69 68 65 62 58 57 58 57 56 53 46 42 38 37 53 68 69 76 76 45 21 20 18 15 21 24 26 27 24 21 20 17 16 16 16 17 19 19 20 21 22 22 21 20 19 18 19 19 18 17 17 23 33 46 57 61 65 73 80 82 80 78 78 77 77 79 77 74 71 67 68 69 68 76 79 68 58 52 50 59
34 38 49 60 62 61 64 64 62 63 62 59 60 59 57 53 44 38 38 46 67 75 52 38 39 28 16 16 15 17 24 25 23 20 17 16 17 15 16 16 16 17 17 16 17 17 18 18 18 18 19 19 18 16 17 24 37 54 68 79 85 85 83 83 84 85 86 85 87 86 85 86 82 78 74 71 74 75 74 82 84 73 65 60 58 66
32 36 39 49 56 57 60 63 59 59 62 61 62 61 58 53 43 38 46 57 66 64 44 29 24 16 11 13 15 20 23 22 19 16 13 12 13 13 15 15 15 15 15 15 16 16 16 17 17 17 16 16 18 25 41 59 75 85 89 91 93 92 91 91 92 93 92 90 86 82 82 82 80 78 73 70 73 78 82 89 88 77 69 65 63 66
32 35 36 41 49 53 57 60 58 58 59 59 61 61 58 53 44 41 50 57 53 45 36 26 16 10 11 14 17 19 18 16 15 12 10 11 12 14 15 14 15 15 15 15 14 14 15 15 14 17 21 28 41 59 77 88 91 90 91 95 97 99 100 100 96 90 84 79 76 74 79 82 83 82 78 72 71 75 84 93 90 78 69 65 65 70
33 35 35 36 41 48 53 55 57 59 59 58 59 61 59 55 46 42 48 50 42 33 27 19 11 8 11 14 16 15 12 11 11 11 11 11 11 12 13 13 14 14 14 16 17 19 20 23 29 40 50 62 75 84 88 90 91 92 96 101 102 103 103 96 87 82 76 72 74 79 88 92 92 91 91 89 85 83 89 97 94 83 72 65 69 82
35 36 35 33 37 44 50 54 56 55 55 58 61 62 62 58 49 44 46 45 38 29 22 13 8 8 10 12 12 9 8 11 11 11 14 19 27 34 39 42 43 41 40 42 45 48 51 54 60 68 74 80 85 87 89 95 99 100 102 104 103 103 99 90 85 84 80 79 85 93 98 99 98 98 100 101 100 97 98 104 103 90 75 71 81 96
36 38 38 37 37 41 49 55 57 54 55 61 67 68 66 60 50 44 42 38 32 26 19 10 8 8 9 10 9 7 9 11 11 19 37 56 70 80 84 86 86 85 83 80 78 78 78 78 79 81 84 85 87 91 95 98 101 102 102 101 100 97 94 92 94 93 88 89 97 101 101 100 99 100 100 100 101 101 101 104 106 97 86 87 97 103
38 41 42 41 40 45 51 53 53 58 64 69 72 72 69 61 50 42 40 35 27 22 16 9 7 7 8 10 8 6 9 11 19 44 73 89 91 90 92 92 91 91 93 92 89 87 87 89 91 92 93 94 96 100 101 101 102 101 99 96 92 90 93 99 102 98 92 91 99 104 104 103 102 101 100 100 100 100 100 102 104 103 101 101 101 98
39 41 44 44 41 43 49 54 57 63 69 70 72 73 70 63 52 42 38 34 26 20 14 8 6 6 8 8 7 6 8 14 37 70 89 91 87 83 82 83 83 85 87 88 89 90 91 93 93 93 94 96 101 105 105 104 103 99 95 91 87 87 95 103 104 101 96 94 96 98 99 101 103 102 100 100 100 100 100 100 100 99 98 95 90 89
42 43 45 47 45 42 48 59 65 66 66 68 72 74 70 64 55 44 38 33 27 20 13 8 6 6 7 7 6 6 5 16 51 83 87 81 82 85 84 83 82 84 88 89 89 90 93 94 92 91 93 95 100 105 104 101 100 97 92 87 86 92 100 102 100 101 103 102 100 99 98 100 102 102 101 101 100 100 99 98 96 95 94 94 94 97
45 47 48 51 53 53 55 58 57 58 65 72 75 76 72 66 57 47 39 32 26 19 12 8 6 5 6 6 5 5 5 14 41 67 74 74 77 84 92 92 86 87 92 94 94 96 99 100 98 95 96 97 97 98 98 99 99 94 88 87 94 101 103 98 94 97 102 103 103 103 101 99 99 100 101 100 100 101 100 100 100 100 101 103 103 102
47 51 55 56 58 61 64 64 59 60 69 76 78 79 76 69 58 49 39 30 23 17 11 8 6 5 6 6 5 5 5 9 22 39 58 70 74 78 87 88 85 89 94 95 97 101 103 104 102 98 97 99 98 96 99 102 98 90 90 96 103 106 103 96 94 97 100 101 102 103 103 102 102 102 101 101 100 100 100 100 100 101 102 104 103 100
48 52 56 58 62 66 71 77 75 73 76 79 80 80 78 71 61 51 40 29 21 17 12 8 5 5 6 6 6 5 5 9 17 29 48 67 73 75 79 81 83 89 93 95 98 100 99 99 100 100 101 102 102 102 103 100 93 92 98 105 107 106 103 99 97 99 101 100 100 101 102 102 101 100 101 102 101 101 101 102 101 99 98 96 94 91
48 51 54 59 64 67 71 78 81 80 83 85 83 79 77 73 64 52 40 30 22 18 13 8 5 5 6 6 6 5 5 10 19 31 49 67 76 79 81 84 84 85 88 93 95 94 90 86 87 93 97 99 101 102 100 93 92 99 105 106 106 104 100 97 97 97 96 95 95 96 98 99 100 100 99 98 95 94 91 88 84 80 75 71 67 63
45 50 54 59 62 65 68 72 75 79 82 84 83 80 76 71 65 54 42 33 25 18 13 8 5 5 6 6 6 5 5 11 22 37 54 69 77 81 82 85 86 86 87 88 86 83 83 80 78 80 85 91 98 99 96 94 98 103 105 103 102 100 96 92 88 81 76 76 80 85 87 87 86 84 79 74 72 71 70 69 68 66 65 65 63 60
45 51 56 59 62 65 67 66 65 69 76 77 77 78 76 71 67 58 45 35 27 19 13 9 6 5 5 5 6 5 5 10 22 39 56 69 76 77 77 80 84 86 85 84 80 77 78 78 77 79 83 88 93 94 93 97 100 101 102 100 99 98 94 84 72 62 58 58 61 65 67 66 68 72 75 77 80 83 84 86 87 88 89 87 85 82
49 53 57 62 65 68 72 75 74 75 78 78 77 78 79 76 71 61 48 37 28 20 15 10 6 5 5 5 5 5 5 8 19 37 56 69 75 74 72 74 80 83 82 81 78 74 71 69 69 72 76 80 87 91 93 97 100 100 99 98 97 95 87 74 65 63 63 62 61 64 70 77 85 92 94 97 99 101 103 104 104 104 103 101 100 99
54 55 59 68 77 81 87 92 90 85 84 85 84 84 84 81 74 64 51 39 30 22 17 12 7 5 4 5 5 4 4 7 18 35 54 66 72 73 70 71 79 85 84 81 77 72 68 63 57 56 61 69 81 91 95 98 99 98 98 99 98 90 80 78 81 82 79 75 75 81 91 98 102 103 101 100 101 102 104 106 106 104 102 100 102 103
58 60 63 72 83 92 97 100 98 93 92 91 89 87 84 81 76 67 55 43 32 24 18 13 9 6 4 4 5 4 4 6 16 33 52 64 69 72 69 68 76 84 86 85 81 73 66 60 53 50 50 57 70 85 93 93 91 90 94 97 90 81 83 95 103 98 91 89 92 98 102 103 105 105 101 100 102 102 102 102 102 102 101 100 100 99
58 63 67 70 76 83 91 97 96 91 89 88 87 86 85 82 78 70 60 48 35 26 20 15 10 7 4 4 4 4 3 5 13 30 48 61 68 72 69 68 74 80 85 90 88 78 69 64 60 56 50 52 65 78 80 75 70 71 77 80 78 80 91 103 107 101 96 95 95 91 86 89 98 103 101 102 105 102 101 102 102 101 100 100 101 98
58 62 66 71 74 75 81 88 89 83 81 82 83 83 83 82 79 72 63 52 39 29 22 17 12 8 5 4 4 4 4 4 9 25 44 56 65 71 69 66 72 77 80 87 92 86 77 72 70 65 56 55 65 70 62 54 53 55 59 65 73 82 90 94 96 95 92 89 86 78 72 76 88 95 98 103 105 101 100 102 103 101 99 100 100 96
56 59 64 70 74 72 73 78 83 83 82 83 82 81 80 80 78 73 67 56 43 32 24 19 15 10 6 4 4 4 4 3 6 21 39 52 62 70 68 65 70 75 76 84 95 96 87 80 77 71 57 48 52 54 48 45 47 50 53 61 70 76 80 82 82 79 80 83 81 74 72 80 90 96 99 103 102 101 101 102 102 103 102 101 100 98
54 59 65 67 68 66 66 68 72 76 78 80 81 81 80 78 76 74 69 60 48 36 27 21 17 12 8 5 4 3 4 4 5 16 36 50 60 67 68 65 69 74 74 77 87 95 94 88 82 77 64 45 36 39 43 44 47 49 51 54 60 64 65 68 68 67 72 78 75 68 70 80 89 95 99 99 97 95 93 91 94 98 100 99 101 102
54 58 63 65 63 63 65 67 70 74 78 80 83 83 82 80 77 74 70 64 54 42 32 24 19 15 10 6 4 3 4 4 4 11 31 50 58 63 65 66 69 75 77 76 79 88 95 95 90 86 77 55 34 32 41 46 47 50 51 50 54 60 64 67 71 76 81 81 74 68 70 75 81 86 90 90 87 83 80 77 80 88 93 94 95 99
54 57 64 68 68 68 70 72 75 80 84 86 87 87 84 81 79 75 72 67 59 48 37 28 22 17 12 8 5 4 4 4 3 6 23 45 58 61 62 64 67 73 78 81 83 85 92 99 99 96 91 74 47 31 36 45 48 52 57 62 67 75 84 90 91 90 88 86 83 79 77 78 80 82 84 84 83 82 80 76 75 82 89 88 83 82
Wind_Speed
49 50 51 52 53 54 55 56 56 57 58 58 58 58 57 57 57 55 52 50 52 55 54 52 54 55 54 53 54 56 58 59 60 60 60 60 59 59 59 60 60 60 61 60 60 60 61 63 65 66 68 69 70 71 72 73 74 75 76 77 78 79 80 82 83 85 86 88 89 90 91 92 93 93 94 95 95 96 97 97 97 96 96 95 94 93
49 50 51 52 53 54 55 56 57 57 58 59 60 60 59 59 60 59 57 56 58 60 59 58 59 59 57 56 55 55 57 58 58 58 57 56 56 57 58 59 59 59 58 58 58 59 62 65 67 68 69 70 71 72 73 74 75 76 77 78 79 81 82 84 85 87 88 90 91 92 94 95 96 97 98 99 100 100 101 102 102 102 102 101 101 100
50 51 51 52 53 55 56 57 57 58 59 60 61 61 60 61 61 59 58 61 64 64 62 61 61 61 60 58 56 55 55 56 56 55 55 55 56 57 57 56 55 54 54 56 58 62 65 66 67 69 70 72 73 74 75 75 76 77 78 80 81 83 84 86 88 89 91 92 93 95 96 98 99 100 101 102 103 104 105 106 107 107 108 108 107 106
50 51 51 53 55 56 57 57 58 59 59 60 61 61 60 62 63 60 59 61 64 65 63 62 63 63 61 58 56 54 54 54 54 54 54 55 56 55 53 51 51 52 55 59 62 64 65 66 67 69 71 72 74 74 75 77 78 79 81 82 84 85 87 89 91 92 94 95 96 97 99 101 102 103 104 106 107 108 109 110 111 112 112 113 113 113
51 51 52 54 55 56 57 58 58 58 58 60 61 61 61 61 62 63 62 61 62 64 64 64 65 63 60 57 55 55 55 55 55 55 56 55 53 52 51 51 53 57 60 62 63 64 65 67 69 70 72 73 75 76 77 79 80 82 83 85 86 88 90 91 93 95 96 97 98 100 102 103 104 106 106 108 109 110 112 113 114 115 116 116 117 117
51 51 53 54 55 57 57 57 58 58 57 58 59 59 60 62 62 63 64 64 64 64 65 64 64 63 60 58 56 56 56 56 56 56 56 54 52 52 53 55 57 59 60 62 64 66 68 69 71 73 74 76 77 78 79 81 82 84 85 87 88 90 91 93 95 97 98 99 100 102 104 105 105 105 105 104 105 106 107 109 111 113 114 116 117 118
52 52 54 55 56 58 58 58 58 58 57 58 58 58 60 61 62 63 64 65 66 66 66 65 63 63 62 59 58 57 56 55 55 55 54 54 54 55 56 57 58 58 61 64 66 68 70 72 74 75 77 79 80 80 81 83 85 87 88 89 90 91 93 94 96 97 98 99 100 101 101 100 99 96 94 92 91 91 92 93 96 99 102 106 109 111
52 53 55 57 57 58 58 58 58 58 58 57 57 59 60 61 62 63 63 64 66 66 67 65 63 64 64 62 60 58 55 54 53 53 55 56 56 56 57 58 57 60 64 66 68 70 72 74 76 78 79 81 82 83 84 86 88 89 90 91 92 92 93 94 95 96 97 97 96 94 93 91 86 81 79 78 77 76 76 77 79 81 84 87 91 95
53 55 57 58 58 58 58 59 59 59 58 57 57 58 59 60 61 62 63 63 64 67 66 64 63 65 65 62 59 56 54 54 54 55 57 57 57 58 59 60 61 64 67 69 71 73 75 77 79 81 82 84 85 86 87 89 90 91 92 92 92 92 93 93 93 92 91 90 89 86 83 79 73 69 68 69 68 67 67 67 68 69 71 73 75 78
56 58 59 60 60 60 59 59 59 59 59 58 58 57 57 58 59 61 62 61 61 64 63 61 62 64 63 59 56 56 55 55 56 56 57 58 59 60 62 63 65 67 70 72 75 77 79 81 82 84 86 87 88 89 90 91 90 91 91 91 91 90 89 88 86 84 82 81 80 76 72 67 62 61 61 60 59 58 58 58 58 60 61 63 64 66
59 60 62 63 62 62 61 60 60 60 59 60 59 59 58 56 57 59 60 59 59 60 59 58 58 60 60 56 54 56 56 56 56 56 57 59 60 62 63 65 68 70 72 75 78 80 82 84 85 87 88 89 90 91 91 91 90 89 89 88 88 85 83 79 76 74 72 71 69 65 61 57 54 53 52 50 48 48 48 48 48 49 51 52 53 55
61 63 64 65 64 64 63 61 60 59 58 60 61 61 62 61 61 64 62 60 61 60 58 58 58 58 59 57 55 57 57 56 56 57 58 60 61 62 64 67 69 70 73 76 80 83 85 87 88 88 89 89 89 90 89 89 87 86 84 82 80 77 74 70 67 65 62 61 59 56 53 49 48 46 43 40 38 38 39 38 38 38 39 40 41 43
61 64 65 66 66 66 65 63 61 58 57 60 62 62 66 67 68 72 69 65 66 64 60 60 59 58 58 57 57 57 57 57 57 59 61 61 61 62 63 64 66 70 75 80 83 85 87 88 89 89 89 88 88 87 86 85 83 80 77 74 71 69 66 62 59 57 54 52 52 49 46 44 43 41 37 35 34 33 33 32 31 31 32 33 34 35
62 65 68 68 67 68 68 66 65 62 61 62 63 64 67 70 73 76 74 71 71 69 64 61 59 60 60 59 59 58 59 60 60 61 61 59 58 59 60 63 68 74 80 84 86 87 89 90 90 88 87 86 85 83 81 78 76 73 70 67 64 61 59 57 54 50 47 46 46 44 42 41 41 39 36 35 34 33 32 32 31 30 30 31 32 32
64 66 70 70 69 70 69 67 67 66 64 64 64 65 66 67 70 74 74 72 72 72 69 64 61 63 64 63 63 62 61 60 58 57 55 54 54 57 61 67 73 80 84 87 89 89 90 89 88 86 83 82 79 76 74 71 69 67 65 63 60 57 55 52 48 44 43 42 42 42 40 40 40 39 38 37 35 34 33 33 33 32 32 32 33 33
65 65 70 72 70 72 71 67 66 66 65 65 64 65 66 66 67 71 73 71 70 73 73 68 65 66 67 67 66 64 61 56 53 52 51 53 56 59 65 72 78 85 88 89 90 89 88 87 84 81 78 75 72 70 68 66 64 63 62 61 58 55 52 49 45 41 40 39 40 40 39 39 40 40 40 39 37 35 34 35 35 35 34 33 34 35
68 64 69 72 71 73 73 67 65 66 66 66 65 66 69 69 68 70 73 71 67 73 77 72 69 69 69 69 66 60 56 52 51 51 51 56 61 65 71 78 83 88 89 89 88 86 84 81 78 75 73 71 69 67 65 63 62 60 59 59 57 53 50 46 43 40 38 38 38 39 39 40 40 40 41 40 38 36 36 36 36 36 36 35 35 36
72 68 69 73 72 74 75 70 65 66 66 66 67 69 72 74 73 71 73 71 67 71 77 74 70 71 71 69 64 57 53 51 52 53 53 58 66 72 78 84 87 89 88 86 83 80 78 75 73 72 70 69 67 65 63 61 60 58 58 57 55 52 48 44 41 39 37 37 37 37 38 39 40 41 40 41 39 37 36 36 35 36 36 36 37 38
74 73 72 74 76 76 77 75 70 68 67 67 68 70 73 76 77 75 73 71 66 69 76 77 73 72 71 68 63 56 53 53 54 56 60 67 75 80 84 86 87 86 83 80 78 76 75 74 73 72 71 69 67 64 61 59 57 56 55 55 54 51 47 43 40 38 37 36 36 35 36 37 39 40 40 40 39 37 36 36 35 34 35 37 39 41
75 77 76 76 78 79 79 78 75 72 70 70 70 71 73 73 75 77 75 70 68 69 74 78 78 74 70 66 60 52 51 55 60 66 73 79 82 83 84 84 82 80 78 77 76 76 75 75 74 73 71 69 66 62 59 57 55 54 53 52 51 49 45 42 39 37 36 35 35 34 34 35 36 37 37 37 38 37 35 36 35 34 34 36 39 41
75 78 79 78 79 81 81 80 79 77 74 74 74 73 74 74 74 78 78 73 71 71 71 76 80 77 69 61 54 51 56 64 72 78 81 82 81 80 80 78 77 77 76 77 77 77 76 75 74 71 69 66 63 59 57 54 52 51 51 49 48 46 42 40 37 36 35 35 34 34 34 35 35 35 34 34 35 35 34 35 35 34 34 35 37 39
75 78 81 81 81 83 84 84 82 80 76 74 74 75 76 77 76 78 80 79 76 74 71 74 80 78 68 57 54 59 67 74 79 81 80 79 78 76 75 75 76 77 77 77 77 76 75 72 70 67 64 61 57 55 53 50 48 47 47 47 45 42 39 36 34 34 34 35 35 34 35 36 36 37 35 33 32 32 33 33 34 36 36 35 35 34
75 78 80 81 81 82 84 85 82 79 76 74 74 76 78 79 78 78 79 79 80 79 75 76 80 77 69 64 65 70 74 76 76 75 74 74 73 74 75 76 77 77 77 76 74 71 68 65 63 60 58 55 52 50 49 46 44 43 43 43 40 38 35 33 31 32 33 34 34 35 35 37 37 37 37 36 34 33 33 33 34 36 37 35 33 30
76 78 81 82 81 81 83 85 84 81 78 77 76 77 79 81 80 79 78 77 81 83 80 79 82 79 74 73 74 75 74 72 70 70 72 74 75 77 78 78 77 76 74 71 66 63 59 57 55 53 51 49 47 46 44 42 40 40 39 38 36 34 31 28 28 30 31 33 34 35 36 37 38 38 38 38 37 34 32 32 34 36 37 35 31 28
78 79 81 84 86 87 87 89 90 88 83 80 79 79 81 82 82 82 81 79 83 86 82 81 83 82 79 78 77 76 75 73 72 73 75 77 79 79 78 77 75 72 68 62 58 56 53 51 50 49 46 45 43 41 39 37 37 36 35 34 32 29 25 24 27 29 32 34 35 36 36 37 38 40 40 38 37 35 32 31 34 36 36 34 31 29
80 80 80 82 86 89 89 89 91 91 88 85 82 81 83 84 84 85 84 83 85 86 82 78 81 84 82 79 78 77 77 77 77 77 78 79 79 77 75 73 69 64 61 57 54 52 50 49 48 46 44 41 39 36 35 34 33 32 31 29 26 23 21 23 27 30 33 35 36 37 38 38 39 39 40 37 35 34 31 29 33 35 35 34 32 29
81 82 80 80 83 86 86 86 86 87 88 87 85 84 85 87 87 86 86 86 84 84 83 79 80 86 86 80 80 80 79 80 81 81 81 78 75 73 70 67 64 60 56 53 51 48 47 45 44 42 40 38 35 32 30 30 29 27 25 23 22 22 23 25 29 32 35 36 37 38 39 39 37 36 37 36 34 33 30 28 31 33 34 34 32 28
81 84 82 80 82 85 85 86 86 86 86 87 87 86 87 89 89 87 86 85 82 82 87 86 83 86 86 82 81 82 81 82 83 81 78 75 72 71 68 65 61 58 54 50 47 44 42 41 39 37 35 33 31 28 26 25 24 23 22 21 22 24 26 29 31 33 35 35 36 36 35 36 35 33 34 34 33 31 29 27 29 31 31 32 31 29
81 84 85 83 83 86 86 87 88 88 87 87 87 87 88 90 91 89 86 83 80 81 87 90 87 86 85 84 83 83 83 84 82 77 73 71 71 70 66 63 59 55 52 49 45 41 39 37 35 32 31 29 28 26 23 22 21 21 21 23 24 27 28 29 30 31 32 31 32 32 32 33 33 32 32 32 32 30 27 27 29 29 28 28 29 28
81 84 86 86 85 87 87 88 89 90 89 89 87 87 89 91 92 91 86 83 84 85 87 90 89 87 85 84 84 84 83 81 75 71 70 70 68 66 62 59 56 53 50 47 44 40 36 34 32 30 28 26 25 24 22 21 22 23 24 24 25 27 27 27 27 27 27 28 29 29 30 30 30 29 29 29 29 27 25 26 27 26 25 25 25 25
81 84 86 87 88 88 89 89 90 90 91 91 89 88 91 93 94 93 88 86 90 92 92 92 92 90 86 84 84 85 81 74 70 69 68 65 63 61 59 57 55 52 50 47 44 40 36 34 31 29 27 25 24 23 23 24 25 26 25 24 24 24 24 24 24 24 25 26 27 27 26 24 23 23 22 22 23 22 22 23 24 23 23 22 22 22
81 84 86 88 89 90 91 91 92 93 94 93 91 91 94 95 96 94 89 88 92 95 96 96 95 92 88 85 85 84 77 69 65 65 62 60 59 58 58 57 55 53 51 48 45 42 38 35 32 29 28 27 26 26 26 27 26 25 23 21 21 22 22 23 23 24 25 25 25 23 21 18 16 15 13 13 14 16 18 19 20 21 21 20 20 20
81 84 87 89 90 92 93 93 95 96 97 95 94 94 96 96 97 95 91 91 93 95 97 98 95 91 88 86 87 84 74 65 62 61 58 58 57 56 56 55 54 52 51 49 47 44 41 38 35 33 31 30 30 30 29 27 24 22 21 20 21 22 23 24 23 23 23 23 21 19 16 13 11 9 6 4 6 9 12 14 17 18 18 18 18 17
80 84 88 90 92 94 95 96 97 98 97 97 95 94 94 95 97 96 92 92 96 97 98 97 93 89 88 87 88 83 71 61 58 56 55 55 55 55 55 55 54 52 50 48 47 45 43 41 39 36 34 33 31 29 26 24 22 21 21 21 22 23 24 24 22 20 20 19 18 16 14 12 10 9 7 5 2 3 5 9 12 14 15 15 15 15
80 83 87 90 92 94 96 98 100 98 97 96 94 92 92 92 95 97 92 92 97 99 98 96 93 90 89 89 88 81 66 56 53 52 51 52 54 56 57 57 56 55 52 49 47 44 43 40 38 36 33 31 29 26 24 22 21 21 22 23 24 24 23 22 20 18 18 17 16 15 14 14 13 12 10 8 6 4 3 5 7 10 12 13 14 15
80 83 88 91 92 94 96 98 99 98 97 96 93 91 93 94 97 99 96 94 97 99 98 98 95 92 91 89 87 79 64 52 49 49 50 52 54 56 58 59 58 56 53 50 47 44 41 39 36 34 32 30 27 25 23 21 21 22 23 24 24 23 22 20 19 18 18 17 16 15 15 15 14 13 11 10 7 5 3 2 5 7 9 10 12 13
80 83 87 91 93 96 97 97 99 100 99 96 94 92 94 96 97 99 99 97 98 99 100 101 99 95 92 90 86 78 64 50 45 45 47 50 54 57 59 59 58 55 52 49 47 44 41 38 36 34 31 29 27 25 23 22 22 23 24 24 23 22 21 19 18 18 18 17 16 15 15 14 13 12 11 9 7 5 3 1 2 3 5 7 8 8
80 84 88 91 94 96 97 97 100 102 99 97 95 93 92 93 95 97 97 96 98 101 102 103 101 97 93 91 87 79 66 53 45 44 46 49 54 58 59 59 57 54 51 48 46 44 42 39 36 33 31 29 27 25 23 22 23 24 23 23 22 21 21 20 19 19 18 17 16 16 15 15 14 13 12 10 8 7 6 4 3 2 1 2 4 5
80 83 87 91 94 96 97 97 98 100 98 96 95 94 92 93 96 97 97 98 101 104 105 104 102 98 94 91 87 80 69 58 50 47 47 50 54 58 59 58 55 52 50 48 47 45 42 38 35 32 30 28 26 25 24 23 24 24 22 22 21 21 21 20 20 19 18 17 16 15 15 15 15 14 13 12 11 10 9 7 6 4 2 1 1 3
79 82 85 89 93 96 97 97 97 98 97 95 95 96 95 95 96 98 101 104 106 106 105 105 103 98 94 92 87 80 70 62 55 51 50 52 55 58 59 57 53 50 48 47 46 44 40 37 34 31 29 28 27 26 25 24 24 22 21 21 21 21 20 20 19 18 17 16 15 15 15 15 14 14 13 13 12 12 11 10 9 7 6 5 4 3
78 81 84 88 92 94 96 97 98 98 97 95 95 96 96 97 98 100 102 106 107 106 105 105 103 98 94 91 88 80 69 61 56 53 52 52 55 57 57 54 51 49 47 45 44 42 39 36 34 32 30 29 29 27 26 25 23 21 21 21 21 21 20 19 18 18 17 16 15 14 14 14 15 15 15 16 16 16 15 14 13 12 11 10 9 7
78 81 84 87 90 93 94 96 97 97 96 96 96 96 96 98 100 101 100 101 104 105 105 104 102 99 94 91 88 81 70 60 54 52 51 51 53 55 55 52 49 47 44 43 41 40 38 36 35 34 32 31 29 28 26 24 22 22 22 23 23 22 20 19 18 18 17 16 16 15 16 17 18 19 19 19 19 18 17 16 15 14 12 11 10 8
79 82 85 87 90 92 94 95 97 97 97 97 97 96 96 97 98 99 98 98 100 104 105 104 102 100 96 92 88 82 71 60 53 50 50 50 52 54 53 50 47 45 42 40 39 39 38 37 36 34 33 31 29 27 25 24 23 23 23 23 22 21 19 19 18 17 17 17 17 19 20 20 21 21 20 20 19 17 16 15 14 13 12 11 10 8
78 81 85 88 91 94 94 93 94 95 95 95 95 94 94 95 95 96 97 97 99 102 105 105 103 100 97 94 90 84 74 62 54 50 49 50 52 53 51 48 46 44 41 38 38 38 38 38 37 35 34 32 29 27 26 25 24 24 23 22 21 18 18 19 18 17 18 18 19 20 21 20 20 19 19 18 17 16 16 15 15 14 13 12 12 11
77 81 85 88 91 92 93 92 92 93 93 93 92 92 92 93 93 94 95 97 98 101 104 106 104 101 98 94 91 86 77 65 55 49 48 50 52 52 49 46 45 43 39 37 36 37 37 38 38 37 35 33 31 29 28 27 26 25 23 21 18 17 19 20 19 18 18 18 19 19 19 19 19 18 18 17 16 16 16 16 15 14 13 13 14 14
76 79 82 86 88 90 91 92 92 93 93 93 93 92 92 92 92 93 95 96 97 100 103 105 105 103 99 95 91 87 80 69 57 50 48 50 52 51 48 45 43 42 38 35 34 35 37 38 39 38 37 36 34 32 30 29 27 25 23 20 18 19 20 20 20 20 19 18 17 17 17 18 18 17 17 16 16 16 16 16 15 13 13 15 16 15
75 77 80 83 87 89 90 90 90 92 93 94 93 93 92 91 92 94 96 96 97 98 101 104 105 103 100 96 92 88 82 73 60 52 48 49 51 50 47 44 42 41 38 34 32 33 35 36 38 39 38 37 34 32 30 29 28 26 24 22 20 20 20 21 21 21 20 18 16 15 16 17 17 16 16 16 16 16 15 16 15 14 15 17 16 15
73 76 79 82 85 88 89 89 89 91 92 93 93 93 93 92 92 94 95 96 97 97 99 102 105 104 100 97 92 88 83 76 64 54 49 49 50 49 46 44 42 40 38 35 31 30 32 34 36 37 38 37 34 30 28 27 27 26 25 22 21 20 20 20 20 21 20 19 16 15 15 16 16 16 16 16 16 16 16 16 16 14 14 15 14 13
72 75 78 80 83 86 88 88 88 89 90 91 92 93 94 94 94 94 95 96 96 97 98 101 103 104 101 98 93 88 84 77 68 57 50 49 49 47 45 44 42 40 39 35 31 29 29 31 33 36 37 37 33 29 26 25 25 25 24 22 21 19 19 19 20 20 20 18 15 14 15 15 15 15 16 16 16 15 15 15 15 13 12 12 11 10
71 74 76 79 82 85 87 88 89 90 91 92 93 94 94 95 95 94 95 95 96 97 98 99 102 103 102 99 95 90 85 79 70 60 52 49 48 46 45 44 43 41 39 36 32 29 28 29 31 33 35 36 33 28 24 23 23 23 23 22 21 20 20 20 20 20 19 17 15 14 14 14 14 14 14 14 14 15 15 15 15 14 13 11 10 9
70 72 75 78 82 85 87 89 90 91 92 93 94 94 95 95 95 95 95 95 95 96 97 98 100 102 101 100 97 92 87 81 74 63 54 49 47 46 44 44 43 41 39 37 34 31 28 27 28 30 32 33 32 28 23 21 21 21 21 21 21 21 21 21 21 20 19 18 16 15 14 14 14 13 13 13 13 13 14 14 14 14 13 11 10 10
Wind_Direction
349 348 346 345 343 341 340 339 339 338 337 336 335 335 335 334 332 330 327 322 319 320 317 309 307 311 310 305 301 299 297 296 295 295 294 293 292 290 288 286 285 285 284 284 283 282 281 281 281 281 280 279 279 278 278 277 276 276 275 275 274 274 274 273 272 272 271 270 270 269 269 268 267 266 265 264 263 261 260 258 256 254 252 251 250 249
349 347 345 343 342 341 340 339 338 337 336 335 334 334 334 333 331 330 328 325 322 322 320 315 313 315 313 310 307 303 300 298 297 296 295 294 292 290 290 289 288 288 287 286 284 283 283 282 282 282 281 280 279 279 278 278 277 277 277 277 276 276 276 276 275 274 274 273 273 272 271 271 270 269 268 267 265 264 263 261 259 257 255 253 252 250
349 347 345 343 342 341 339 338 337 336 336 335 333 332 333 331 328 327 326 325 323 323 321 316 315 316 314 312 308 305 302 300 298 297 296 295 294 294 293 293 291 289 287 284 283 284 284 284 283 283 282 281 280 280 280 280 280 280 280 280 280 279 279 278 278 278 277 277 276 276 275 273 272 271 270 269 268 266 265 264 262 261 259 257 255 253
349 347 345 344 342 341 339 338 337 336 336 335 333 332 332 330 327 327 326 324 324 324 321 317 316 316 315 312 308 306 304 302 301 300 299 299 299 298 297 294 292 288 286 286 286 286 286 286 286 285 284 283 283 283 283 283 283 283 282 282 281 280 280 280 280 280 279 279 278 277 276 275 274 272 271 270 269 268 267 265 264 263 261 260 258 256
349 347 346 344 342 341 339 338 337 336 336 334 333 332 331 329 329 328 327 325 324 324 321 317 316 316 315 311 309 309 308 307 306 305 304 305 303 300 298 295 293 291 290 290 290 290 289 288 287 286 286 285 285 284 284 284 284 283 283 283 283 282 283 283 283 282 282 281 280 279 278 276 275 274 273 271 270 269 268 266 265 264 263 261 260 259
350 348 346 344 342 341 339 338 337 336 336 335 333 333 331 330 330 329 328 326 325 324 322 318 316 317 315 312 312 311 311 310 310 308 308 307 304 302 300 298 297 296 295 294 293 292 291 290 288 288 287 287 287 287 287 287 287 286 286 286 286 286 286 286 285 285 284 284 282 281 279 278 276 275 274 273 272 270 268 267 265 264 263 261 260 259
351 348 347 345 342 341 339 338 337 336 336 336 335 334 332 332 331 330 329 328 327 326 323 320 319 317 315 314 314 314 313 312 310 308 307 306 305 304 303 302 300 298 297 295 294 293 292 292 291 291 291 291 290 290 290 290 290 289 289 288 288 288 288 288 288 287 286 285 284 282 281 279 278 277 276 274 272 270 268 266 264 263 262 260 259 258
351 348 347 346 343 341 339 338 337 336 336 336 336 336 335 334 332 331 330 330 328 325 323 322 320 316 316 317 317 317 315 312 309 308 307 307 307 306 305 303 300 298 297 296 295 295 294 294 294 294 294 293 293 293 292 292 292 291 291 290 290 290 290 290 289 289 288 287 285 284 283 282 281 280 278 275 272 271 269 267 265 263 261 260 258 257
351 349 349 348 345 343 341 339 338 337 336 336 337 337 336 335 334 332 332 332 329 325 324 324 321 317 318 319 319 317 315 311 310 309 309 309 308 306 305 303 301 299 299 299 298 297 297 297 297 297 296 296 295 295 294 294 294 293 293 292 292 292 292 291 290 289 288 287 285 284 284 283 283 281 278 275 274 272 271 269 267 265 262 260 257 256
351 351 351 350 348 346 344 341 340 339 337 336 337 338 338 337 335 334 333 332 329 326 326 324 320 317 318 320 319 315 313 311 311 310 310 309 307 306 305 303 302 302 301 300 300 301 302 302 301 300 299 299 298 298 297 296 296 296 295 294 293 292 291 290 289 288 286 285 284 284 284 283 282 279 277 277 276 275 273 271 269 266 263 260 257 255
351 353 353 352 351 349 348 345 342 341 339 337 336 337 340 340 338 337 335 332 329 330 328 324 321 318 319 323 320 314 314 313 313 312 310 309 307 306 305 304 303 303 302 303 303 303 303 302 301 300 301 301 301 300 299 298 297 296 295 293 292 291 290 288 287 285 284 283 283 282 282 281 280 279 279 279 279 277 275 272 269 266 263 259 257 255
352 353 354 353 352 351 350 348 346 344 340 338 337 337 339 341 341 341 340 335 332 334 332 327 325 323 322 324 322 317 317 316 315 313 311 309 308 306 306 305 304 303 303 303 302 302 302 301 301 301 302 301 300 299 298 297 296 294 293 292 291 290 289 287 285 284 282 281 280 280 280 279 278 279 280 281 280 278 276 273 270 267 265 262 259 256
353 353 354 353 352 352 351 350 349 347 343 341 340 338 339 340 340 342 342 337 336 337 335 331 328 327 326 325 323 321 320 319 317 314 312 310 309 307 306 305 304 303 302 301 301 302 303 302 302 302 302 301 299 298 297 296 295 294 293 292 290 289 288 286 285 283 279 276 277 278 278 277 277 278 279 279 278 277 277 276 273 271 268 265 261 256
356 353 355 355 353 353 352 350 350 350 348 345 344 342 342 340 338 339 339 335 335 336 337 334 329 328 329 326 326 325 323 321 317 314 313 311 308 305 304 305 304 302 300 301 303 303 303 303 303 302 301 300 299 298 298 297 297 296 295 293 291 290 288 287 285 279 273 272 274 274 274 274 275 276 276 276 277 278 278 276 274 271 267 263 259 256
358 355 355 356 354 354 354 351 350 351 350 349 347 344 344 341 337 337 336 332 332 334 337 337 332 330 330 329 329 328 325 322 317 314 311 306 303 302 303 303 301 301 302 303 304 304 303 303 302 301 300 299 299 299 298 298 297 297 296 294 293 291 289 287 283 275 269 270 270 269 269 270 272 273 274 275 277 278 278 276 273 270 265 261 258 255
1 357 356 356 355 355 356 354 351 351 351 350 350 347 346 342 338 337 337 334 331 333 336 337 334 332 331 331 332 329 325 321 315 311 307 303 303 301 301 301 301 303 304 304 304 304 303 302 302 301 301 301 300 300 300 299 298 298 296 295 294 292 290 286 281 272 267 267 266 265 265 266 268 270 272 275 278 279 277 273 270 268 265 260 256 254
2 0 357 356 356 356 357 356 353 352 351 351 351 350 349 346 340 337 338 336 333 332 336 337 335 333 332 332 333 328 322 317 312 310 307 305 304 302 301 303 303 304 304 304 305 304 303 303 303 304 303 303 303 302 302 301 300 299 297 295 293 292 290 286 279 270 266 266 264 263 262 263 265 267 269 273 275 275 273 271 269 267 264 259 254 252
1 1 359 357 358 357 358 359 357 353 352 351 351 351 351 350 346 340 336 336 333 331 335 337 334 333 333 333 331 325 319 316 312 310 305 303 303 303 304 304 304 304 305 305 305 304 305 306 306 305 305 304 304 304 303 302 301 300 297 295 293 292 290 286 278 269 266 266 264 262 261 261 263 265 267 269 271 271 269 269 268 266 263 259 254 251
359 1 1 359 359 359 359 360 359 357 354 353 353 352 351 350 348 345 339 335 332 329 332 336 335 334 335 333 329 324 319 315 311 307 305 305 306 306 305 305 306 306 307 307 308 308 308 308 307 306 306 305 305 304 303 302 301 299 296 294 293 292 290 286 277 268 266 266 265 264 263 262 262 262 264 267 268 268 267 267 266 264 261 258 254 253
359 359 1 1 360 359 359 359 360 359 358 356 355 354 353 350 347 347 345 338 332 329 331 334 334 335 336 333 328 322 318 315 311 309 309 309 309 308 307 308 309 309 310 311 311 310 309 309 308 307 306 306 305 304 303 302 301 299 296 293 293 292 290 286 277 268 266 267 266 267 268 268 267 264 263 265 266 265 263 263 263 262 260 257 254 254
360 359 0 2 1 360 360 360 360 360 359 358 357 355 353 351 348 348 349 344 336 333 333 331 332 336 338 333 328 324 320 317 313 312 313 312 311 311 311 312 312 312 313 312 311 310 310 309 309 308 307 306 306 305 303 302 300 298 295 293 292 292 289 284 275 268 267 269 270 272 274 276 276 274 269 266 266 266 262 260 260 260 258 256 255 255
1 360 0 1 2 1 1 1 0 360 359 359 357 356 354 351 347 345 347 347 342 337 335 331 331 337 338 332 328 326 321 318 316 316 315 315 315 315 315 315 315 314 312 311 311 311 311 310 309 308 307 307 306 304 302 301 299 297 294 294 293 292 290 283 273 266 267 270 273 277 280 281 281 280 278 273 269 267 264 258 255 256 256 255 255 255
2 1 0 2 2 2 1 1 1 0 1 0 359 357 356 354 350 346 344 344 343 341 338 334 334 338 338 333 329 326 321 319 319 319 318 318 318 318 318 317 315 313 313 313 313 313 313 312 311 310 309 308 307 304 302 302 300 297 295 296 296 294 290 282 271 266 269 273 277 281 283 283 281 280 279 278 274 269 265 260 253 251 253 254 254 253
1 1 360 1 2 2 1 1 2 2 2 2 1 359 357 356 354 349 345 342 342 343 340 337 338 339 336 333 329 325 323 324 324 324 323 323 322 320 319 317 316 316 316 317 317 317 316 315 313 313 312 310 307 306 306 305 302 300 300 300 300 297 291 281 270 270 275 279 283 284 284 282 280 280 280 279 277 272 265 259 252 249 251 253 252 250
1 1 359 359 360 1 1 2 3 3 3 3 2 0 358 357 355 352 349 344 342 344 344 340 337 336 335 334 331 328 329 330 330 330 328 325 323 321 320 319 320 321 321 322 322 321 320 319 318 317 315 312 311 311 310 308 306 306 306 306 304 298 290 279 274 277 282 285 286 285 283 282 281 282 281 279 276 272 264 256 251 248 248 250 249 246
2 2 1 359 360 1 2 3 3 3 3 2 2 2 360 357 355 353 350 346 344 345 345 339 333 334 338 337 334 335 335 335 334 332 329 326 324 323 323 324 325 326 327 328 327 327 326 324 322 320 318 317 317 317 315 312 312 313 313 311 307 300 291 283 282 285 288 288 288 287 286 285 283 282 280 277 273 269 263 253 248 247 246 246 247 247
2 3 3 1 1 2 2 2 2 2 1 1 1 2 2 359 357 354 351 349 346 344 344 341 335 336 341 340 338 340 339 337 335 333 330 329 328 327 329 331 332 333 333 332 332 331 329 326 325 324 323 323 323 323 321 320 321 321 319 314 309 303 297 293 292 292 292 292 291 290 289 287 284 280 277 275 271 266 261 252 246 245 243 243 245 248
2 3 4 3 2 3 2 2 2 2 1 1 1 2 3 1 358 356 353 351 348 343 344 345 342 340 342 342 342 343 340 337 336 335 333 332 332 334 337 338 338 338 338 337 337 336 333 332 332 331 330 330 331 332 333 332 331 327 322 317 312 307 303 301 300 299 298 297 294 292 290 287 284 280 276 273 270 265 259 250 244 242 241 241 241 242
2 3 4 4 3 3 2 2 2 2 2 1 1 2 2 2 360 358 355 352 348 344 344 346 346 345 345 345 345 345 341 338 337 337 337 338 340 342 344 344 345 345 344 345 346 345 343 342 341 341 341 341 342 345 347 342 335 328 324 320 316 312 310 310 308 305 303 302 299 296 292 288 285 280 275 270 266 263 256 247 241 239 238 238 239 241
2 3 3 4 3 3 2 2 2 2 2 2 2 2 2 3 2 0 357 352 349 347 347 347 347 348 348 347 346 345 342 340 340 340 343 346 348 350 351 352 353 354 353 354 356 356 355 353 353 354 355 354 353 353 350 344 337 332 330 326 322 320 320 320 318 315 313 310 307 303 298 293 288 283 276 268 262 256 248 242 238 235 234 235 237 240
2 2 3 3 2 2 2 2 2 2 2 1 2 3 3 4 4 3 358 353 351 351 350 349 349 351 351 350 347 346 345 345 344 346 350 354 356 358 0 1 2 3 3 4 5 6 6 5 5 4 3 1 357 352 348 343 339 337 337 335 333 333 333 332 330 328 326 322 318 313 308 303 298 289 279 268 257 246 239 236 232 227 227 230 233 239
2 2 2 2 2 1 1 2 2 2 1 1 3 5 5 4 3 3 360 354 352 352 351 352 352 353 352 351 349 349 350 349 349 352 357 2 4 6 7 7 8 8 8 7 8 9 9 9 8 6 3 359 354 349 346 344 342 342 345 347 347 347 347 346 345 341 337 333 330 326 323 320 315 304 288 268 248 235 230 229 223 219 221 226 233 242
1 1 1 2 2 1 1 2 2 1 2 3 4 6 6 5 3 3 0 357 355 353 352 354 354 353 352 351 351 353 354 353 354 358 3 6 7 8 7 7 7 7 6 5 4 4 4 3 1 359 356 352 349 347 346 346 347 351 355 357 357 357 357 356 354 350 347 345 344 343 343 345 346 340 328 287 235 222 221 218 213 214 220 228 238 249
1 1 1 1 1 2 2 1 2 2 4 5 6 5 6 5 4 4 2 358 357 356 354 355 355 354 353 353 354 356 358 356 356 0 4 5 5 5 4 3 2 2 1 360 358 357 356 356 354 352 350 349 350 351 351 352 354 357 1 2 1 360 0 360 359 357 358 360 2 4 8 17 25 30 36 50 91 171 198 206 210 217 225 236 249 259
1 2 1 1 1 2 1 1 3 4 5 5 6 6 5 5 4 6 4 359 357 357 356 355 356 356 356 356 355 358 360 357 356 359 2 2 2 2 1 1 360 359 358 358 358 358 358 358 358 357 357 357 359 359 358 359 1 4 6 5 2 0 1 2 2 6 9 13 18 24 29 36 43 50 58 66 78 100 155 201 218 228 238 249 259 264
1 2 1 1 1 2 2 3 4 4 4 4 6 6 6 5 4 5 5 1 357 356 356 356 358 358 358 357 357 358 0 359 356 357 358 360 1 1 360 359 359 359 0 1 2 4 4 4 4 4 3 3 3 1 2 7 11 11 8 4 2 4 5 5 8 15 19 22 27 32 37 43 47 52 58 65 73 88 119 189 223 237 247 254 260 263
1 2 2 1 1 2 3 3 3 3 3 4 6 7 7 7 5 3 3 2 358 357 357 358 359 359 358 358 358 359 1 1 357 356 357 359 0 1 359 358 359 1 3 3 3 4 4 4 3 3 2 2 3 5 10 15 15 12 8 7 9 13 14 13 17 21 24 28 32 37 41 46 49 53 57 62 68 77 93 137 208 233 243 249 252 254
1 2 2 2 2 2 2 3 3 3 4 5 6 7 7 7 7 6 4 2 360 0 0 360 360 360 359 358 358 359 1 1 358 357 359 0 1 1 359 359 360 1 2 2 2 2 2 1 1 1 3 6 9 13 17 18 15 12 12 15 20 23 23 23 25 27 28 31 35 40 45 49 52 55 58 62 67 71 78 86 97 118 188 243 256 262
1 2 2 2 2 2 2 3 3 4 5 5 5 6 6 6 6 6 5 4 4 3 2 1 0 0 359 358 358 358 359 1 1 0 1 2 2 0 359 359 1 2 2 1 2 2 3 4 5 7 11 14 17 19 19 17 14 15 19 24 26 26 25 25 27 29 31 34 39 46 52 56 60 63 66 69 72 74 75 76 78 80 77 55 283 277
1 2 3 3 3 2 2 4 4 4 5 5 5 5 6 6 6 5 5 6 6 4 2 1 1 1 359 359 359 358 357 358 0 1 1 2 1 359 358 359 1 2 2 3 4 5 7 9 12 15 18 20 20 20 18 16 16 20 25 27 25 22 21 22 25 28 32 34 40 48 55 60 62 63 64 66 67 67 67 66 66 67 66 62 57 47
1 2 3 3 3 3 3 4 5 5 5 5 5 5 5 6 6 7 6 6 5 4 3 2 2 1 0 359 359 359 358 357 358 360 1 1 360 358 358 360 2 3 3 5 7 9 11 13 15 18 20 21 20 18 17 17 20 24 25 23 20 18 17 20 25 31 36 38 40 45 51 58 61 62 64 66 68 69 69 69 68 66 63 58 52 45
1 2 2 3 3 3 3 4 5 5 5 5 5 5 4 5 7 9 8 6 4 4 4 3 2 2 1 0 0 0 360 359 358 359 360 360 359 358 359 1 3 4 5 7 10 12 14 14 15 17 18 19 18 17 17 20 22 23 20 17 15 14 16 24 32 39 43 47 50 54 60 66 70 71 72 72 71 70 68 66 63 59 53 47 39 30
1 1 2 2 3 3 3 3 4 5 5 5 5 5 5 6 7 8 8 7 5 5 5 4 3 3 2 1 1 1 1 0 359 360 360 359 359 360 0 2 4 5 7 10 12 14 15 16 16 17 17 18 18 19 20 21 20 17 13 11 9 13 24 36 43 48 52 58 64 69 72 73 73 72 70 68 65 64 62 60 58 54 48 40 29 18
1 1 1 2 3 3 4 4 3 4 5 5 6 6 6 6 6 6 7 7 6 6 6 6 5 4 3 2 2 2 3 2 1 0 0 360 1 1 1 3 5 6 8 11 14 15 16 17 17 17 18 18 19 18 17 15 12 9 7 8 11 23 40 48 50 54 60 66 71 73 73 71 68 65 63 61 60 58 56 53 50 45 40 32 23 14
1 2 2 3 3 3 4 3 3 4 5 5 5 6 6 6 7 7 7 7 6 6 7 7 6 5 4 3 3 3 3 3 2 1 1 1 2 2 2 4 7 7 8 11 14 16 17 17 18 18 19 19 19 16 13 11 9 9 11 15 25 41 54 55 53 55 61 66 69 68 66 63 60 58 57 55 53 52 49 44 40 38 35 30 22 15
2 2 2 2 3 4 4 3 3 3 4 5 5 5 6 6 6 7 7 7 7 7 7 8 7 5 4 4 3 3 4 4 4 3 2 2 3 3 3 6 8 9 9 11 13 15 17 18 19 19 20 20 19 17 16 15 16 19 25 33 44 54 58 56 54 54 57 59 60 59 57 55 53 53 52 50 46 45 42 38 34 32 33 32 23 12
2 2 2 2 3 3 4 4 3 3 4 4 5 5 6 6 6 7 7 8 8 8 8 8 8 7 5 4 4 4 4 5 5 5 4 4 3 3 4 7 9 10 11 11 13 15 16 18 19 20 20 20 19 19 20 22 25 30 37 44 52 57 57 54 52 50 49 50 49 48 47 48 48 47 46 44 41 37 34 33 31 27 29 30 20 8
1 2 2 3 2 3 3 4 4 3 3 4 4 5 6 6 6 7 8 8 8 8 8 8 8 8 6 5 5 5 5 5 5 6 5 5 4 4 5 8 10 11 11 12 13 15 16 17 18 19 20 20 21 23 27 30 33 37 41 46 51 53 53 50 47 44 43 44 45 44 43 43 43 41 38 36 33 28 26 27 27 26 28 27 17 8
1 1 2 2 2 2 3 3 4 4 4 4 5 5 6 6 6 7 8 9 9 9 9 9 9 8 7 6 6 6 6 5 5 5 5 6 5 5 6 9 11 11 12 12 13 14 15 16 17 18 20 21 23 27 33 36 38 41 43 45 47 47 46 43 39 38 41 45 47 44 41 39 38 35 32 28 24 20 19 23 26 28 30 28 21 17
0 1 1 1 2 2 2 2 3 3 3 4 5 5 6 6 6 7 8 9 9 9 10 10 9 9 8 7 7 6 7 7 6 4 4 5 6 6 7 10 12 12 12 13 13 13 14 14 15 17 19 21 24 29 35 40 42 43 43 44 43 41 38 36 34 36 40 45 45 41 37 34 32 29 26 23 20 15 14 18 23 28 28 22 20 25
0 0 0 1 2 2 2 3 3 3 3 4 4 5 6 6 6 6 7 8 9 9 10 11 11 10 9 8 8 7 8 8 7 5 3 4 5 6 7 10 13 14 14 14 14 13 13 13 13 15 18 20 23 27 34 40 43 43 44 42 40 37 35 33 33 35 37 39 40 38 35 32 29 27 24 22 20 16 13 11 15 21 21 14 15 26